IZ0QWM-13 Scandriglia IT current weather conditions

sailwx.info

Air temperature 16.1° C
Dewpoint 12.1° C

Last reported at 2017-May-25 21:04 UTC.
Time now 2017-May-25 22:09 UTC

Location: N 42°10' E 012°47'.
View on Google Maps.

See reports from other nearby stations

  
Tides and Currents Weather Stations Pressure Air Temp Water Temp Dewpoint Dewpoint Depression Visibility Wind Speed Wind Dir Waves Ship Positions
date/time (UTC)wind fromknots sea level pressurealtimeterstation pressurevisibilityair tempwater tempwave heightnotes
2017-May-25 21:04 16.1
2017-May-25 20:54 16.1
2017-May-25 20:44 320 0 gusting 0 17.2
2017-May-25 20:34 320 0 gusting 0 17.2
2017-May-25 20:24 17.2
2017-May-25 20:14 17.2
2017-May-25 20:04 17.2
2017-May-25 19:54 17.2
2017-May-25 19:44 17.8
2017-May-25 19:34 17.8
2017-May-25 19:24 17.8
2017-May-25 19:14 17.8
2017-May-25 19:04 310 0 gusting 0 17.8
2017-May-25 18:54 310 0 gusting 0 17.8
2017-May-25 18:44 18.9
2017-May-25 18:34 18.9
2017-May-25 18:24 320 0 gusting 0 18.9
2017-May-25 18:14 320 0 gusting 0 18.9
2017-May-25 18:04 330 0 gusting 0 18.9
2017-May-25 17:54 330 0 gusting 0 18.9
2017-May-25 17:44 320 0 gusting 0 18.9
2017-May-25 17:34 320 0 gusting 0 18.9
2017-May-25 17:24 340 0 gusting 0 18.9
2017-May-25 17:14 340 0 gusting 0 18.9
2017-May-25 17:04 340 0 gusting 0 18.9
2017-May-25 16:54 340 0 gusting 0 18.9
2017-May-25 16:44 18.9
2017-May-25 16:34 18.9
2017-May-25 16:24 18.9
2017-May-25 16:14 18.9
2017-May-25 16:04 18.9
2017-May-25 15:54 18.9
2017-May-25 15:44 320 0 gusting 0 17.8
2017-May-25 15:34 320 0 gusting 0 17.8
2017-May-25 15:24 17.8
2017-May-25 15:14 17.8
2017-May-25 15:04 170 0 gusting 0 21.1
2017-May-25 14:54 170 0 gusting 0 21.1
2017-May-25 14:44 270 0 gusting 0 23.9
2017-May-25 14:34 270 0 gusting 0 23.9
2017-May-25 14:24 310 0 gusting 0 26.1
2017-May-25 14:14 310 0 gusting 0 26.1
2017-May-25 14:04 270 0 gusting 0 27.8
2017-May-25 13:54 270 0 gusting 0 27.8
2017-May-25 13:44 320 0 gusting 0 27.8
2017-May-25 13:34 320 0 gusting 0 27.8
2017-May-25 13:24 340 0 gusting 0 27.8
2017-May-25 13:14 340 0 gusting 0 27.8
2017-May-25 13:04 340 0 gusting 0 27.2
2017-May-25 12:54 340 0 gusting 0 27.2
2017-May-25 12:44 270 0 gusting 0 27.2
2017-May-25 12:34 270 0 gusting 0 27.2
2017-May-25 12:24 320 0 gusting 0 27.2
2017-May-25 12:14 320 0 gusting 0 27.2
2017-May-25 12:04 320 0 gusting 0 27.2
2017-May-25 11:54 320 0 gusting 0 27.2
2017-May-25 11:44 270 0 gusting 0 26.1
2017-May-25 11:34 270 0 gusting 0 26.1
2017-May-25 11:24 090 0 gusting 0 26.1
2017-May-25 11:14 090 0 gusting 0 26.1
2017-May-25 11:04 270 0 gusting 0 25.0
2017-May-25 10:54 270 0 gusting 0 25.0
2017-May-25 10:44 300 0 gusting 0 25.0
2017-May-25 10:34 300 0 gusting 0 25.0
2017-May-25 10:24 240 0 gusting 0 22.8
2017-May-25 10:14 240 0 gusting 0 22.8
2017-May-25 10:04 270 0 gusting 0 22.2
2017-May-25 09:54 270 0 gusting 0 22.2
2017-May-25 09:44 270 0 gusting 0 21.1
2017-May-25 09:34 270 0 gusting 0 21.1
2017-May-25 09:24 300 0 gusting 0 21.1
2017-May-25 09:14 300 0 gusting 0 21.1
2017-May-25 09:04 140 0 gusting 0 21.1
2017-May-25 08:54 140 0 gusting 0 21.1
2017-May-25 08:44 200 0 gusting 0 20.0
2017-May-25 08:33 200 0 gusting 0 20.0
2017-May-25 08:23 320 0 gusting 0 17.8
2017-May-25 08:13 320 0 gusting 0 17.8
2017-May-25 08:03 320 0 gusting 0 17.8
2017-May-25 07:53 320 0 gusting 0 17.8
2017-May-25 07:43 320 0 gusting 0 16.1
2017-May-25 07:33 320 0 gusting 0 16.1
2017-May-25 07:23 190 0 gusting 0 16.1
2017-May-25 07:13 190 0 gusting 0 16.1
2017-May-25 07:03 13.9
2017-May-25 06:53 13.9
2017-May-25 06:43 150 0 gusting 0 13.9
2017-May-25 06:33 150 0 gusting 0 13.9
2017-May-25 06:23 150 0 gusting 0 13.9
2017-May-25 06:13 150 0 gusting 0 13.9
2017-May-25 06:03 160 0 gusting 0 13.9
2017-May-25 05:53 160 0 gusting 0 13.9
2017-May-25 05:43 160 0 gusting 0 13.9
2017-May-25 05:33 160 0 gusting 0 13.9
2017-May-25 05:23 140 0 gusting 0 13.9
2017-May-25 05:13 140 0 gusting 0 13.9
2017-May-25 05:03 13.9
2017-May-25 04:53 13.9
2017-May-25 04:43 13.9
2017-May-25 04:33 13.9
2017-May-25 04:23 190 0 gusting 0 13.9
2017-May-25 04:13 190 0 gusting 0 13.9
2017-May-25 04:03 13.9
2017-May-25 03:53 13.9
2017-May-25 03:43 140 0 gusting 0 13.9
2017-May-25 03:33 140 0 gusting 0 13.9
2017-May-25 03:23 150 0 gusting 0 13.9
2017-May-25 03:13 150 0 gusting 0 13.9
2017-May-25 03:03 140 0 gusting 0 13.9
2017-May-25 02:55 140 0 gusting 0 13.9
2017-May-25 02:43 330 0 gusting 0 13.9
2017-May-25 02:33 330 0 gusting 0 13.9
2017-May-25 02:23 230 0 gusting 0 13.9
2017-May-25 02:13 230 0 gusting 0 13.9
2017-May-25 02:03 170 0 gusting 0 13.9
2017-May-25 01:53 170 0 gusting 0 13.9
2017-May-25 01:43 050 0 gusting 0 13.9
2017-May-25 01:24 320 0 gusting 0 13.9
2017-May-25 01:14 320 0 gusting 0 13.9
2017-May-25 01:04 15.0
2017-May-25 00:54 15.0
2017-May-25 00:44 320 0 gusting 0 15.0
2017-May-25 00:34 320 0 gusting 0 15.0
2017-May-25 00:24 210 0 gusting 0 15.0
2017-May-25 00:14 210 0 gusting 0 15.0
2017-May-25 00:04 180 0 gusting 0 16.1
2017-May-24 23:54 180 0 gusting 0 16.1
2017-May-24 23:44 320 0 gusting 0 16.1
2017-May-24 23:34 320 0 gusting 0 16.1
2017-May-24 23:24 16.1
2017-May-24 23:14 16.1
2017-May-24 23:04 16.1
2017-May-24 22:54 16.1
2017-May-24 22:44 17.2
2017-May-24 22:34 17.2
2017-May-24 22:24 270 0 gusting 0 17.2
2017-May-24 22:14 270 0 gusting 0 17.2
2017-May-24 22:04 240 0 gusting 0 17.8
2017-May-24 21:54 240 0 gusting 0 17.8
2017-May-24 21:44 17.8
2017-May-24 21:34 17.8
2017-May-24 21:24 17.8
2017-May-24 21:14 17.8
2017-May-24 21:04 18.9
2017-May-24 20:54 18.9
2017-May-24 20:44 18.9
2017-May-24 20:34 18.9
2017-May-24 20:24 230 0 gusting 0 20.0
2017-May-24 20:14 230 0 gusting 0 20.0
2017-May-24 20:04 20.0
2017-May-24 19:54 20.0
2017-May-24 19:44 050 0 gusting 0 21.1
2017-May-24 19:34 050 0 gusting 0 21.1
2017-May-24 19:24 21.1
2017-May-24 19:14 21.1
2017-May-24 19:04 330 0 gusting 0 22.8
2017-May-24 18:54 330 0 gusting 0 22.8
2017-May-24 18:44 140 0 gusting 0 22.8
2017-May-24 18:34 140 0 gusting 0 22.8
2017-May-24 18:24 120 0 gusting 0 23.9
2017-May-24 18:14 120 0 gusting 0 23.9
2017-May-24 18:04 230 0 gusting 0 25.0
2017-May-24 17:54 230 0 gusting 0 25.0
2017-May-24 17:44 140 0 gusting 0 26.1
2017-May-24 17:34 140 0 gusting 0 26.1
2017-May-24 17:23 140 0 gusting 0 26.1
2017-May-24 17:13 140 0 gusting 0 26.1
2017-May-24 17:03 140 1 gusting 1 27.2
2017-May-24 16:53 140 1 gusting 1 27.2
2017-May-24 16:43 140 1 gusting 1 27.8
2017-May-24 16:33 140 1 gusting 1 27.8
2017-May-24 16:23 140 1 gusting 1 27.8
2017-May-24 16:13 140 1 gusting 1 27.8
2017-May-24 16:03 150 1 gusting 1 27.8
2017-May-24 15:53 150 1 gusting 1 27.8
2017-May-24 15:43 140 1 gusting 1 27.8
2017-May-24 15:33 140 1 gusting 1 27.8
2017-May-24 15:23 140 1 gusting 1 27.8
2017-May-24 15:13 140 0 gusting 0 27.8
2017-May-24 15:03 140 0 gusting 0 27.8
2017-May-24 14:53 140 0 gusting 0 27.8
2017-May-24 14:43 140 0 gusting 0 27.2
2017-May-24 14:33 140 0 gusting 0 27.2
2017-May-24 14:23 320 0 gusting 0 27.8
2017-May-24 14:13 320 0 gusting 0 27.8
2017-May-24 14:03 320 0 gusting 0 27.8
2017-May-24 13:53 320 0 gusting 0 27.8
2017-May-24 13:43 320 0 gusting 0 27.8
2017-May-24 13:33 320 0 gusting 0 27.8
2017-May-24 13:23 330 0 gusting 0 27.8
2017-May-24 13:13 330 0 gusting 0 27.8
2017-May-24 13:03 330 0 gusting 0 28.9
2017-May-24 12:53 330 0 gusting 0 28.9
2017-May-24 12:43 330 0 gusting 0 28.9
2017-May-24 12:33 330 0 gusting 0 28.9
2017-May-24 12:23 230 0 gusting 0 28.9
2017-May-24 12:13 230 0 gusting 0 28.9
2017-May-24 12:03 27.8
2017-May-24 11:53 27.8
2017-May-24 11:43 330 0 gusting 0 27.8
2017-May-24 11:33 330 0 gusting 0 27.8
2017-May-24 11:23 320 0 gusting 0 27.2
2017-May-24 11:13 320 0 gusting 0 27.2
2017-May-24 11:03 330 0 gusting 0 26.1
2017-May-24 10:53 330 0 gusting 0 26.1
2017-May-24 10:43 320 0 gusting 0 26.1
2017-May-24 10:33 320 0 gusting 0 26.1
2017-May-24 10:23 310 0 gusting 0 26.1
2017-May-24 10:13 310 0 gusting 0 26.1
2017-May-24 10:03 330 0 gusting 0 25.0
2017-May-24 09:53 330 0 gusting 0 25.0
2017-May-24 09:43 320 0 gusting 0 25.0
2017-May-24 09:33 320 0 gusting 0 25.0
2017-May-24 09:23 020 0 gusting 0 25.0
2017-May-24 09:13 020 0 gusting 0 25.0
2017-May-24 09:03 320 0 gusting 0 23.9
2017-May-24 08:53 320 0 gusting 0 23.9
2017-May-24 08:43 090 0 gusting 0 22.8
2017-May-24 08:33 090 0 gusting 0 22.8
2017-May-24 08:23 22.2
2017-May-24 08:13 22.2
2017-May-24 08:03 320 0 gusting 0 20.0
2017-May-24 07:53 320 0 gusting 0 20.0
2017-May-24 07:43 320 0 gusting 0 18.9
2017-May-24 07:33 320 0 gusting 0 18.9
2017-May-24 07:23 17.8
2017-May-24 07:13 17.8
2017-May-24 07:03 160 0 gusting 0 16.1
2017-May-24 06:53 160 0 gusting 0 16.1
2017-May-24 06:43 170 0 gusting 0 16.1
2017-May-24 06:33 170 0 gusting 0 16.1
2017-May-24 06:23 170 0 gusting 0 15.0
2017-May-24 06:13 170 0 gusting 0 15.0
2017-May-24 06:03 150 0 gusting 0 13.9
2017-May-24 05:53 150 0 gusting 0 13.9
2017-May-24 05:43 140 0 gusting 0 13.9
2017-May-24 05:33 140 0 gusting 0 13.9
2017-May-24 05:23 180 0 gusting 0 13.9
2017-May-24 05:13 180 0 gusting 0 13.9
2017-May-24 05:03 12.8
2017-May-24 04:53 12.8
2017-May-24 04:43 140 0 gusting 0 13.9
2017-May-24 04:33 140 0 gusting 0 13.9
2017-May-24 04:23 140 0 gusting 0 13.9
2017-May-24 04:13 140 0 gusting 0 13.9
2017-May-24 04:03 170 0 gusting 0 13.9
2017-May-24 03:53 170 0 gusting 0 13.9
2017-May-24 03:43 320 0 gusting 0 12.8
2017-May-24 03:33 320 0 gusting 0 12.8
2017-May-24 03:23 170 0 gusting 0 12.8
2017-May-24 03:13 170 0 gusting 0 12.8
2017-May-24 03:03 12.8
2017-May-24 02:53 12.8
2017-May-24 02:43 230 0 gusting 0 12.8
2017-May-24 02:33 230 0 gusting 0 12.8
2017-May-24 02:23 170 0 gusting 0 12.8
2017-May-24 02:13 170 0 gusting 0 12.8
2017-May-24 02:03 150 0 gusting 0 13.9
2017-May-24 01:53 150 0 gusting 0 13.9
2017-May-24 01:43 150 0 gusting 0 12.8
2017-May-24 01:33 150 0 gusting 0 12.8
2017-May-24 01:23 150 0 gusting 0 12.8
2017-May-24 01:13 150 0 gusting 0 12.8
2017-May-24 01:03 140 0 gusting 0 13.9
2017-May-24 00:53 140 0 gusting 0 13.9
2017-May-24 00:43 140 0 gusting 0 13.9
2017-May-24 00:33 140 0 gusting 0 13.9
2017-May-24 00:23 150 0 gusting 0 13.9
2017-May-24 00:13 150 0 gusting 0 13.9
2017-May-24 00:03 140 0 gusting 0 13.9
2017-May-23 23:53 140 0 gusting 0 13.9
2017-May-23 23:43 320 0 gusting 0 13.9
2017-May-23 23:33 320 0 gusting 0 13.9
2017-May-23 23:23 13.9
2017-May-23 23:13 13.9
2017-May-23 23:03 160 0 gusting 0 15.0
2017-May-23 22:53 160 0 gusting 0 15.0
2017-May-23 22:43 270 0 gusting 0 15.0
2017-May-23 22:33 270 0 gusting 0 15.0
2017-May-23 22:23 270 0 gusting 0 15.0
2017-May-23 22:13 270 0 gusting 0 15.0
2017-May-23 22:03 16.1